Москва (Восток)

Россия / Московская область     55°45′00″N   37°49′58″E
темп.,
°C
ветер,
м/с
пор.,
м/с
влажн.,
%
обл.,
%
осадки,
мм/ч
давл.,
гПа
погр.,
м
12 апреля, пн
пн1200:00+8ююв22671 0.0 103213
03:00+6вюв237430 0.0 103444
06:00+5вюв2678100 0.0 1034115
09:00+8вюв41160100 0.0 1034469
12:00+12вюв51045100 0.0 1032928
15:00+14вюв5844100 0.0 1030964
18:00+13вюв4958100 0.0 1029750
21:00+10вюв41174100 0.0 1029430
13 апреля, вт
вт1300:00+8вюв4119066 0.0 1028308
03:00+7вюв3109656 0.0 1027249
06:00+7юв3109393 0.0 1026210
09:00+12ююв4106278 0.0 1026355
12:00+17ююв5842100 0.0 1025759
15:00+20ю573183 0.0 10242008
18:00+18ююв483558 0.0 1023682
21:00+14ююв395292 0.0 1024224
14 апреля, ср
ср1400:00+12ююв3115912 0.0 1023242
03:00+10ююв311645 0.0 1023236
06:00+8юв376775 0.0 1023142
09:00+12ююв485269 0.0 1022300
12:00+17ююв5839100 0.0 1021817
15:00+19ююв573190 0.0 10191715
18:00+18ююв473444 0.0 10191121
21:00+14юв385091 0.0 1019199
15 апреля, чт
чт1500:00+12юв2858100 0.0 1018176
03:00+10ююв246283 0.0 101883
06:00+9юв226784 0.0 101837
09:00+12юв2355100 0.0 1018213
12:00+16ююв2341100 0.0 1017592
15:00+18юв1137100 0.0 1017912
18:00+17вюв1241100 0.0 1016109
21:00+14всв225098 0.0 101614
16 апреля, пт
пт1600:00+12св2258100 0.0 101626
03:00+10ссв2571100 0.0 1016144
06:00+8ссв4888100 0.0 1017271
09:00+10св587498 0.0 1018517
12:00+12св6863100 0.0 1019826
15:00+10св71066100 0.0 1021895
18:00+9св61158100 0.0 10221024
21:00+8св612460 0.0 10241093